Top 50   28 MHz   UTC   Spotter   Comment  
J5T   28000.0   19 Nov 13:53   IS0ABC   CW Oggi grazie
J5T   28485.0   19 Nov 13:52   IU1AVL   QSX 5 UP. Tnx for QSO.
J5T   28285.1   19 Nov 13:52   S52BB   Tnx QSO up 5
J5T   28485.0   19 Nov 13:52   ON7RN   nothing here
J5T   28485.1   19 Nov 13:50   9A2F   fb sig.hr
IS0FWY   28074.0   19 Nov 13:46   IW4EGP   FT8
J5T   28485.0   19 Nov 13:46   IK2VUA   up5
J5T   28485.0   19 Nov 13:43   G4ELJ   up 5
J5T   28485.0   19 Nov 13:42   IZ4IRX   up5 73
J5T   28485.0   19 Nov 13:38   EA4ETN   up 5
J5T   28485.0   19 Nov 13:38   IZ2SNY   TNX 5UP
J5T   28485.0   19 Nov 13:35   IZ4AIF   tnx 5up
J5T   28485.1   19 Nov 13:34   IK3PJX   up
J5T   28485.0   19 Nov 13:30   IZ2QDQ   grazie 73
J5T   28485.0   19 Nov 13:29   IK2HKT   5 UP
CE2AWW   28075.1   19 Nov 12:51   LU1HVK   FT8 FT8 Sent: +00 Rcvd: -09 Dale Chile
9J2BO   28030.0   19 Nov 12:41   IK3JLV   Tnx nice qso Brian. 73 ciao
M0ODV   28485.0   19 Nov 12:33   IT9CLX   THANKS
J5T   28485.0   19 Nov 12:28   SV2CXI   i copy 57 before 10 min
IT9CLX   28485.0   19 Nov 12:27   M0ODV   Great spot
J5T   28485.0   19 Nov 12:26   IT9CLX   NO COPY
J5T   28485.0   19 Nov 12:22   SV2CXI   ---5 up
J5T   28485.0   19 Nov 12:20   IZ0PMV  
J5T   28485.0   19 Nov 12:20   EA4ELC   UP 5
J5T   28485.0   19 Nov 12:19   IK2HKT   5UP
J5T   28485.0   19 Nov 12:19   IW9FIR   today here ever came
J5T   28485.0   19 Nov 12:19   DC5GA   Nothing in JN47FX
EA8YV   28020.0   19 Nov 12:17   DL1HBT  
J5T   28485.0   19 Nov 12:16   IZ5DMQ   10 meters is gone...nothing here
J5T   28485.0   19 Nov 12:11   PY2KNK   NIL 10 meters is dead
J5T   28485.0   19 Nov 12:07   PF1MO   up 6
CT2IUK   28480.0   19 Nov 12:01   CT1EJB   cq cq 10m
J5T   28485.0   19 Nov 12:00   M0NKR   UP 5
J5T   28485.0   19 Nov 12:00   EA8SR   Listen 5 up
J5T   28485.0   19 Nov 12:00   9A6R   TNX QSO.GL
J5T   28485.0   19 Nov 11:58   I8YAV   buona domenica
J5T   28485.0   19 Nov 11:58   G2YT   55
LZ2HR   28021.9   19 Nov 11:53   LZ3FN   LZDXC
LU4CAC   28360.0   19 Nov 11:51   LU4CAC   Cq...Cq
J5T   28485.0   19 Nov 11:48   G0UIH   5/5 up 5
J5T   28485.0   19 Nov 11:48   VK2NSS   listning l/p vk ok
J5T   28485.0   19 Nov 11:44   I0DJV   GRAZIIIEEEE RAGAZZI STRIKEEE
J5T   28485.0   19 Nov 11:43   SP6ITF  
J5T   28485.0   19 Nov 11:42   IK3PCZ   5up
J5T   28485.0   19 Nov 11:42   EA7RU   up5
J5T   28485.0   19 Nov 11:42   DK8MZ   up 5 loud not busy
J5T   28485.0   19 Nov 11:40   IZ8LKL   up5 Grazie !!
J5T   28485.0   19 Nov 11:36   IC8CUQ   Tnx QSO, 73! 100 watt up 5
J5T   28485.0   19 Nov 11:35   IZ8DDL   5 up
J5T   28485.0   19 Nov 11:35   IZ4MJP   up 5. Good signal in Italy